Flag for United Kingdom Weather past 2 weeks in Exeter, England, United Kingdom

Now
39 °F

Passing clouds.


Feels Like: 35 °F
Forecast: 37 / 48 °F
Wind: 6 mph from West

Location: Yeovilton

Current Time: Dec 25, 2014 at 6:34:44 AM

Latest Report: Dec 25, 2014 at 5:50 AM


Visibility: N/A

Pressure: 30.36 "Hg

Humidity: 100%

Dew point: 39 °F

Location of ExeterLocation

Historic Weather in Exeter — Graph

°F

Exeter temperature yesterday

Maximum temperature yesterday: 54 °F (at 12:50 AM)
Minimum temperature yesterday: 37 °F (at 8:50 PM)
Average temperature yesterday: 46 °F

Past Weeks' High & Low Weather Summary

 TemperatureHumidityPressure
High57 °F (Dec 18, 12:50 PM)100% (Dec 13, 3:50 AM)30.48 "Hg (Dec 13, 3:50 AM)
Low27 °F (Dec 13, 5:50 AM)62% (Dec 10, 12:50 PM)29.30 "Hg (Dec 12, 5:50 AM)
Average47 °F84%29.98 "Hg
* Reported Dec 10 4:50 AM — Dec 25 4:50 AM, Exeter, Weather by CustomWeather, © 2014

Note: Actual official high and low records may vary slightly from our data, if they occured in-between our weather recording intervals... More about our weather records

Advertising

Exeter weather history for previous 24 hours

 ConditionsComfort  
Time TempWeatherWind HumidityBarometerVisibility
4:50 AM
Dec 25
41 °FPartly cloudy.6 mph93%30.33 "HgN/A
3:50 AM39 °FPassing clouds.No wind93%30.33 "HgN/A
2:50 AM39 °FPassing clouds.1 mph93%30.33 "HgN/A
1:50 AM41 °FPassing clouds.3 mph87%30.30 "HgN/A
12:50 AM39 °FPartly cloudy.2 mph87%30.30 "HgN/A
11:50 PM
Dec 24
37 °FPassing clouds.2 mph93%30.30 "HgN/A
10:50 PM41 °FPassing clouds.7 mph81%30.27 "HgN/A
9:50 PM39 °FChilly.6 mph87%30.27 "HgN/A
8:50 PM37 °FPassing clouds.2 mph87%30.27 "HgN/A
7:50 PM39 °FChilly.6 mph87%30.24 "HgN/A
6:50 PM41 °FPassing clouds.6 mph81%30.24 "HgN/A
5:50 PM41 °FPassing clouds.8 mph76%30.21 "HgN/A
4:50 PM43 °FPassing clouds.10 mph71%30.18 "HgN/A
3:50 PM43 °FQuite cool.9 mph76%30.18 "HgN/A
2:50 PM46 °FRain showers. Scattered clouds.14 mph71%30.15 "Hg4 mi
1:50 PM46 °FPartly sunny.18 mph62%30.15 "HgN/A
12:50 PM46 °FScattered clouds.20 mph62%30.12 "HgN/A
11:50 AM46 °FPartly sunny.13 mph71%30.12 "HgN/A
10:50 AM48 °FCool.12 mph76%30.09 "HgN/A
9:50 AM46 °FPartly sunny.7 mph82%30.09 "HgN/A
8:50 AM45 °FPartly sunny.9 mph81%30.07 "HgN/A
7:50 AM46 °FPassing clouds.12 mph82%30.04 "HgN/A
6:50 AM46 °FPassing clouds.20 mph87%30.01 "HgN/A
Weather by CustomWeather, © 2014

See weather overviewHow to use our weather pages